Location: Asheville, NC
(35.6000°N, 82.5500°W)
Time: 21:18:14
(UTC-05:00)

OTV 5 (USA 277) - Pass Details

Date: 16 October 2017
Orbit: 404 x 417 km, 43.0° (Epoch: 07 September)

Event Time Altitude Azimuth Distance (km) Brightness Sun altitude
Rises 19:26:59 0° 286° (WNW) 2,348 ? -7.7°
Reaches altitude 10° 19:29:23 10° 302° (WNW) 1,487 ? -8.1°
Maximum altitude 19:32:07 22° 356° (N) 949 ? -8.7°
Drops below altitude 10° 19:34:51 10° 51° (NE) 1,487 ? -9.2°
Enters shadow 19:35:01 - 52° (NE) 1,541 ? -9.3°
